Content
SEND FEEDBACK

Daily
Averages
Monthly
Summary
United Kingdom

EXETER, ENGLAND


Home > Europe > United Kingdom > England
Elevation: 98 feet     Latitude: 50 44N     Longitude: 003 25E

WEATHER
 
SELECT A DAY
Number of Records: 280,355;   Date Range: 7/1/96 - 12/18/14
 
SHARE

PRINT THIS DATA

[ ← Previous Day ]
WEATHER ALMANAC - DECEMBER 16, 2013
[ Next Day → ]
[ °C ]   °F
Weather ElementAverageHighLow
Temperature47.7 °F51.8 °F (1:30 pm)44.6 °F (7:30 am)
Dewpoint38.6 °F42.8 °F (3:30 am)35 °F (1:00 pm)
Humidity69.2 %87 % (3:30 am)42 % (1:00 pm)
Barometer30.19 in30.25 in (1:00 am)30.15 in (1:30 pm)
Wind Speed12.7 mph19.6 mph (1:30 am)
Weather ElementAverage
Visibility9.8 mi
Wind DirectionS (182 °)

Weather ElementTotal
Precipitation---
Heating Degree Days16.8 (Base 65)
Averaged from 59 records on December 16, 2013
WEATHER CONDITIONS BREAKOUT
WIND DIRECTION BREAKOUT
WEATHER BY HOUR - DECEMBER 16, 2013
[ °C ]   °F
Local TimeTemperatureDewpointHumidityBarometerVisibilityWind DirectionWind SpeedGust SpeedPrecipitationEventsConditions
12:30 AM46.4 °F41.0 °F81 %30.24 in6.2 miSouth (180°)15.0 mphMostly Cloudy
1:00 AM46.0 °F40.0 °F71 %30.25 in19.0 miSouth (190°)16.1 mphMostly Cloudy
1:00 AM46.4 °F39.2 °F76 %30.24 in6.2 miSouth (190°)17.3 mphMostly Cloudy
1:30 AM46.4 °F39.2 °F76 %30.24 in6.2 miSouth (190°)19.6 mphOvercast
2:00 AM46.4 °F39.2 °F76 %30.24 in6.2 miSouth (190°)15.0 mphOvercast
2:30 AM46.4 °F41.0 °F81 %30.21 in6.2 miSouth (180°)16.1 mphOvercast
3:00 AM46.4 °F41.0 °F81 %30.21 in6.2 miSouth (180°)17.3 mphOvercast
3:30 AM46.4 °F42.8 °F87 %30.21 in6.2 miSouth (180°)18.4 mphOvercast
4:00 AM46.0 °F42.0 °F83 %30.22 in12.0 miSouth (190°)19.6 mphClear
4:00 AM46.4 °F42.8 °F87 %30.21 in6.2 miSouth (190°)19.6 mphMostly Cloudy
5:00 AM46.4 °F41.0 °F81 %30.21 in6.2 miSouth (180°)16.1 mphMostly Cloudy
5:30 AM46.4 °F41.0 °F81 %30.18 in6.2 miSouth (180°)13.8 mphMostly Cloudy
6:00 AM46.4 °F41.0 °F81 %30.18 in6.2 miSouth (180°)15.0 mphMostly Cloudy
6:30 AM46.4 °F39.2 °F76 %30.18 in6.2 miSouth (190°)15.0 mphMostly Cloudy
7:00 AM46.4 °F39.2 °F76 %30.21 in6.2 miSouth (190°)15.0 mphMostly Cloudy
7:00 AM45.0 °F39.0 °F72 %30.22 in19.0 miSouth (190°)15.0 mphPartly Cloudy
7:30 AM44.6 °F39.2 °F81 %30.21 in6.2 miSouth (190°)13.8 mphMostly Cloudy
8:00 AM44.6 °F37.4 °F76 %30.18 in6.2 miSouth (180°)12.7 mphScattered Clouds
8:30 AM44.6 °F37.4 °F76 %30.18 inSouth (170°)12.7 mphClear
9:00 AM44.6 °F37.4 °F76 %30.21 inSSE (160°)9.2 mphClear
9:30 AM44.6 °F37.4 °F76 %30.21 inSouth (170°)10.4 mphClear
10:00 AM44.6 °F37.4 °F76 %30.21 inSouth (170°)9.2 mphClear
10:00 AM45.0 °F38.0 °F68 %30.22 in25.0 miSouth (170°)10.4 mphClear
10:30 AM46.4 °F37.4 °F71 %30.18 inSSE (160°)11.5 mphClear
11:00 AM48.2 °F37.4 °F66 %30.18 inSouth (170°)12.7 mphClear
11:30 AM48.2 °F35.6 °F62 %30.18 inSouth (180°)16.1 mphClear
12:30 PM50.0 °F35.6 °F58 %30.18 inSouth (190°)16.1 mphClear
1:00 PM51.0 °F35.0 °F42 %30.19 in19.0 miSouth (190°)15.0 mphScattered Clouds
1:00 PM50.0 °F35.6 °F58 %30.18 inSouth (190°)15.0 mphClear
1:30 PM51.8 °F35.6 °F54 %30.15 inSouth (180°)13.8 mphClear
2:00 PM51.8 °F35.6 °F54 %30.15 inSouth (190°)11.5 mphClear
2:30 PM51.8 °F35.6 °F54 %30.15 in6.2 miSouth (190°)8.1 mphMostly Cloudy
3:00 PM51.8 °F35.6 °F54 %30.15 inSouth (180°)10.4 mphClear
3:14 PM50.0 °F35.6 °F58 %30.15 in6.2 miSouth (180°)11.5 mphPartly Cloudy
3:30 PM50.0 °F35.6 °F58 %30.15 inSouth (180°)11.5 mphClear
4:00 PM50.0 °F36.0 °F49 %30.19 in19.0 miSouth (190°)10.4 mphMostly Cloudy
4:00 PM50.0 °F37.4 °F62 %30.18 in6.2 miSouth (180°)10.4 mphMostly Cloudy
4:30 PM50.0 °F37.4 °F62 %30.15 in6.2 miSouth (190°)11.5 mphMostly Cloudy
5:00 PM49.0 °F38.0 °F56 %30.19 in19.0 miSouth (190°)11.5 mphMostly Cloudy
5:00 PM50.0 °F39.2 °F66 %30.18 in6.2 miSouth (190°)11.5 mphMostly Cloudy
5:30 PM50.0 °F39.2 °F66 %30.18 in6.2 miSouth (190°)10.4 mphMostly Cloudy
6:00 PM49.0 °F40.0 °F61 %30.21 in19.0 miSouth (180°)8.1 mphMostly Cloudy
6:00 PM50.0 °F39.2 °F66 %30.18 in6.2 miSouth (180°)8.1 mphMostly Cloudy
6:30 PM50.0 °F41.0 °F71 %30.18 in6.2 miSouth (180°)11.5 mphMostly Cloudy
7:00 PM50.0 °F41.0 °F71 %30.18 in6.2 miSouth (180°)10.4 mphMostly Cloudy
7:00 PM50.0 °F40.0 °F60 %30.22 in19.0 miSouth (180°)9.2 mphMostly Cloudy
7:30 PM50.0 °F39.2 °F66 %30.21 in6.2 miSouth (180°)11.5 mphMostly Cloudy
8:00 PM49.0 °F40.0 °F61 %30.22 in19.0 miSouth (180°)12.7 mphMostly Cloudy
8:00 PM50.0 °F39.2 °F66 %30.21 in6.2 miSouth (180°)13.8 mphMostly Cloudy
8:30 PM48.2 °F39.2 °F71 %30.18 in6.2 miSouth (180°)12.7 mphMostly Cloudy
9:00 PM48.0 °F39.0 °F63 %30.21 in19.0 miSouth (180°)12.7 mphMostly Cloudy
9:00 PM48.2 °F39.2 °F71 %30.18 in6.2 miSouth (180°)12.7 mphMostly Cloudy
9:30 PM46.4 °F39.2 °F76 %30.18 in6.2 miSouth (180°)11.5 mphScattered Clouds
10:00 PM46.0 °F39.0 °F67 %30.21 in19.0 miSouth (180°)9.2 mphScattered Clouds
10:00 PM46.4 °F39.2 °F76 %30.18 in6.2 miSouth (180°)9.2 mphPartly Cloudy
10:30 PM46.4 °F39.2 °F76 %30.18 in6.2 miSouth (180°)8.1 mphPartly Cloudy
11:00 PM45.0 °F38.0 °F68 %30.20 in19.0 miSouth (180°)8.1 mphScattered Clouds
11:00 PM44.6 °F37.4 °F76 %30.18 in6.2 miSouth (180°)8.1 mphScattered Clouds
11:30 PM46.4 °F37.4 °F71 %30.18 in6.2 miSouth (190°)11.5 mphScattered Clouds
Hourly data recorded from LFQQ, located miles away from Exeter, England







STORIES FROM OUR PARTNERS